Location: San Martino di Castrozza
(46.2667°N, 11.8000°E)
Time: 17:59:16
(UTC+00:00)

Cosmos 1953 - Pass Details

Date: 02 August 2021
Orbit: 538 x 556 km, 82.5° (Epoch: 18 September)

Event Time Altitude Azimuth Distance (km) Brightness Sun altitude
Rises 02:20:59 0° 138° (SE) 2,724 5.8 -14.0°
Reaches altitude 10° 02:24:16 10° 109° (ESE) 1,833 5.3 -13.6°
Maximum altitude 02:25:59 13° 84° (E) 1,675 5.5 -13.4°
Drops below altitude 10° 02:27:43 10° 58° (ENE) 1,835 6.4 -13.2°
Sets 02:31:00 0° 29° (NNE) 2,731 7.4 -12.8°
